Aitkin, MN

7:45 PM CST on February 27, 2017 (GMT -0600)
Aitkin Municipal / Steve Kurtz Field

Weather History for KAIT - July, 2014

Change the Weather History Date:

Friday, July 4, 2014

  Actual Average Record
Temperature  
Mean Temperature 60 °F -  
Max Temperature 75 °F 79 °F 94 °F (1990)
Min Temperature 46 °F 54 °F 37 °F (1972)
Degree Days  
Heating Degree Days 4    
Growing Degree Days 10 (Base 50)    
Moisture  
Dew Point 52 °F    
Average Humidity 65    
Maximum Humidity 88    
Minimum Humidity 44    
Precipitation  
Precipitation 0.07 in - - ()
Sea Level Pressure  
Sea Level Pressure 30.16 in    
Wind  
Wind Speed 5 mph (South)    
Max Wind Speed 17 mph    
Max Gust Speed 24 mph    
Visibility 9 miles    
Events Rain    
Averages and records for this station are not official NWS values.
T = Trace of Precipitation, MM = Missing Value Source: NWS Daily Summary

Daily Weather History Graph

Daily Weather History Graph

Search for Another Location

Airport or City:

Trip Planner

Search our weather history database for the weather conditions in past years. The results will help you decide how hot, cold, wet, or windy it might be!

Date:

Astronomy

Jul. 04, 2014 Rise Set
Actual Time 5:27 AM CDT 9:10 PM CDT
Civil Twilight 4:48 AM CDT 9:49 PM CDT
Nautical Twilight 3:56 AM CDT 10:41 PM CDT
Astronomical Twilight 2:43 AM CDT 11:53 PM CDT
Moon 12:50 PM CDT (7/4) 12:08 AM CDT (7/4)
Length of Visible Light 17h 00m
Length of Day
15h 43m
Waxing Crescent, 42% of the Moon is Illuminated
Jul 4
Waxing Crescent
Jul 5
First Quarter
Jul 12
Full
Jul 18
Last Quarter
Jul 26
New

Hourly Weather History & Observations

Time (CDT) Temp. Dew Point Humidity Pressure Visibility Wind Dir Wind Speed Gust Speed Precip Events Conditions
12:14 AM 51.8 °F 46.4 °F 82% 30.20 in 5.0 mi Calm Calm - N/A   Haze
12:33 AM 51.8 °F 46.4 °F 82% 30.20 in 10.0 mi Calm Calm - N/A   Clear
12:54 AM 51.8 °F 46.4 °F 82% 30.20 in 7.0 mi Calm Calm - N/A   Clear
1:14 AM 51.8 °F 46.4 °F 82% 30.21 in 5.0 mi Calm Calm - N/A   Haze
1:33 AM 50.0 °F 44.6 °F 82% 30.21 in 3.0 mi Calm Calm - N/A   Haze
1:54 AM 50.0 °F 44.6 °F 82% 30.21 in 7.0 mi Calm Calm - N/A   Clear
2:14 AM 50.0 °F 44.6 °F 82% 30.21 in 10.0 mi Calm Calm - N/A   Clear
2:34 AM 50.0 °F 44.6 °F 82% 30.21 in 5.0 mi Calm Calm - N/A   Haze
2:53 AM 48.2 °F 44.6 °F 87% 30.22 in 10.0 mi Calm Calm - N/A   Clear
3:14 AM 48.2 °F 42.8 °F 82% 30.22 in 5.0 mi Calm Calm - N/A   Haze
3:34 AM 48.2 °F 42.8 °F 82% 30.22 in 0.8 mi Calm Calm - N/A   Haze
3:54 AM 48.2 °F 42.8 °F 82% 30.22 in 10.0 mi Calm Calm - N/A   Clear
4:14 AM 48.2 °F 42.8 °F 82% 30.22 in 7.0 mi Calm Calm - N/A   Clear
4:34 AM 48.2 °F 42.8 °F 82% 30.22 in 7.0 mi Calm Calm - N/A   Clear
4:54 AM 48.2 °F 42.8 °F 82% 30.22 in 10.0 mi Calm Calm - N/A   Clear
5:13 AM 46.4 °F 42.8 °F 87% 30.22 in 10.0 mi Calm Calm - N/A   Clear
5:34 AM 46.4 °F 42.8 °F 87% 30.22 in 4.0 mi Calm Calm - N/A   Haze
5:53 AM 46.4 °F 42.8 °F 87% 30.22 in 10.0 mi Calm Calm - N/A   Clear
6:14 AM 48.2 °F 42.8 °F 82% 30.22 in 10.0 mi Calm Calm - N/A   Clear
6:34 AM 50.0 °F 44.6 °F 82% 30.23 in 10.0 mi Calm Calm - N/A   Clear
6:53 AM 53.6 °F 46.4 °F 77% 30.23 in 10.0 mi Calm Calm - N/A   Clear
7:14 AM 55.4 °F 51.8 °F 88% 30.23 in 10.0 mi Calm Calm - N/A   Clear
7:34 AM 60.8 °F 55.4 °F 82% 30.23 in 10.0 mi Calm Calm - N/A   Clear
7:53 AM 64.4 °F 57.2 °F 77% 30.23 in 10.0 mi Calm Calm - N/A   Clear
8:14 AM 69.8 °F 57.2 °F 64% 30.23 in 10.0 mi South 5.8 mph - N/A   Clear
8:33 AM 71.6 °F 55.4 °F 57% 30.23 in 10.0 mi SSE 5.8 mph - N/A   Clear
8:54 AM 71.6 °F 55.4 °F 57% 30.22 in 10.0 mi SSW 9.2 mph - N/A   Clear
9:14 AM 71.6 °F 53.6 °F 53% 30.22 in 10.0 mi South 9.2 mph - N/A   Clear
9:33 AM 73.4 °F 55.4 °F 53% 30.22 in 10.0 mi SSE 8.1 mph - N/A   Clear
9:54 AM 73.4 °F 53.6 °F 50% 30.21 in 10.0 mi South 11.5 mph - N/A   Clear
10:14 AM 73.4 °F 53.6 °F 50% 30.21 in 10.0 mi South 10.4 mph - N/A   Clear
10:33 AM 75.2 °F 53.6 °F 47% 30.21 in 10.0 mi South 13.8 mph 20.7 mph N/A   Clear
10:54 AM 75.2 °F 53.6 °F 47% 30.21 in 10.0 mi SSE 12.7 mph 17.3 mph N/A   Clear
11:14 AM 75.2 °F 51.8 °F 44% 30.20 in 10.0 mi South 16.1 mph 24.2 mph N/A   Clear
11:33 AM 75.2 °F 53.6 °F 47% 30.19 in 10.0 mi South 12.7 mph 21.9 mph N/A   Clear
11:54 AM 75.2 °F 53.6 °F 47% 30.19 in 10.0 mi South 12.7 mph 18.4 mph N/A   Scattered Clouds
12:13 PM 75.2 °F 51.8 °F 44% 30.18 in 10.0 mi SSE 12.7 mph 20.7 mph N/A   Mostly Cloudy
12:34 PM 75.2 °F 51.8 °F 44% 30.18 in 10.0 mi South 13.8 mph 21.9 mph N/A   Mostly Cloudy
12:54 PM 75.2 °F 51.8 °F 44% 30.18 in 10.0 mi South 12.7 mph 20.7 mph N/A   Mostly Cloudy
1:14 PM 73.4 °F 53.6 °F 50% 30.18 in 10.0 mi South 11.5 mph 17.3 mph N/A   Overcast
1:34 PM 73.4 °F 55.4 °F 53% 30.17 in 10.0 mi South 8.1 mph 17.3 mph N/A   Overcast
1:54 PM 75.2 °F 53.6 °F 47% 30.17 in 10.0 mi South 12.7 mph 18.4 mph N/A   Overcast
2:14 PM 73.4 °F 55.4 °F 53% 30.17 in 10.0 mi SSE 11.5 mph 18.4 mph N/A   Overcast
2:34 PM 73.4 °F 53.6 °F 50% 30.17 in 10.0 mi South 10.4 mph - N/A   Overcast
2:54 PM 71.6 °F 53.6 °F 53% 30.16 in 10.0 mi South 13.8 mph 18.4 mph N/A   Overcast
3:14 PM 68.0 °F 57.2 °F 68% 30.16 in 10.0 mi South 6.9 mph - 0.07 in Rain Light Rain
3:34 PM 69.8 °F 59.0 °F 68% 30.15 in 10.0 mi South 10.4 mph - 0.07 in   Mostly Cloudy
3:53 PM 69.8 °F 57.2 °F 64% 30.15 in 10.0 mi South 9.2 mph 12.7 mph 0.07 in   Mostly Cloudy
4:14 PM 71.6 °F 55.4 °F 57% 30.14 in 10.0 mi SSE 8.1 mph 16.1 mph N/A   Overcast
4:33 PM 71.6 °F 55.4 °F 57% 30.13 in 10.0 mi SSE 12.7 mph 23.0 mph N/A   Mostly Cloudy
4:54 PM 73.4 °F 55.4 °F 53% 30.13 in 10.0 mi SSE 11.5 mph 18.4 mph N/A   Scattered Clouds
5:14 PM 73.4 °F 57.2 °F 57% 30.11 in 10.0 mi South 12.7 mph 20.7 mph N/A   Clear
5:33 PM 73.4 °F 55.4 °F 53% 30.11 in 10.0 mi South 13.8 mph 24.2 mph N/A   Scattered Clouds
5:54 PM 73.4 °F 57.2 °F 57% 30.10 in 10.0 mi SSE 17.3 mph 21.9 mph N/A   Clear
6:14 PM 73.4 °F 55.4 °F 53% 30.09 in 10.0 mi SSE 13.8 mph 23.0 mph N/A   Clear
6:33 PM 73.4 °F 55.4 °F 53% 30.08 in 10.0 mi SSE 15.0 mph 23.0 mph N/A   Clear
6:54 PM 73.4 °F 55.4 °F 53% 30.07 in 10.0 mi SSE 10.4 mph 18.4 mph N/A   Clear
7:14 PM 71.6 °F 55.4 °F 57% 30.07 in 10.0 mi SSE 12.7 mph 19.6 mph N/A   Clear
7:33 PM 73.4 °F 55.4 °F 53% 30.06 in 10.0 mi SSE 10.4 mph 19.6 mph N/A   Clear
7:54 PM 71.6 °F 55.4 °F 57% 30.06 in 10.0 mi SSE 11.5 mph - N/A   Clear
8:14 PM 71.6 °F 55.4 °F 57% 30.06 in 10.0 mi SSE 5.8 mph - N/A   Clear
8:33 PM 71.6 °F 57.2 °F 60% 30.06 in 10.0 mi SSE 8.1 mph - N/A   Clear
8:54 PM 71.6 °F 57.2 °F 60% 30.04 in 10.0 mi South 10.4 mph 16.1 mph N/A   Clear
9:14 PM 69.8 °F 57.2 °F 64% 30.04 in 10.0 mi SSE 8.1 mph - N/A   Clear
9:34 PM 69.8 °F 57.2 °F 64% 30.04 in 10.0 mi SSE 8.1 mph - N/A   Clear
9:54 PM 69.8 °F 57.2 °F 64% 30.05 in 10.0 mi South 8.1 mph - N/A   Scattered Clouds
10:13 PM 69.8 °F 57.2 °F 64% 30.05 in 10.0 mi South 8.1 mph - N/A   Clear
10:34 PM 69.8 °F 57.2 °F 64% 30.05 in 10.0 mi South 8.1 mph - N/A   Clear
10:54 PM 69.8 °F 59.0 °F 68% 30.03 in 10.0 mi South 10.4 mph - N/A   Clear
11:13 PM 69.8 °F 59.0 °F 68% 30.03 in 10.0 mi South 9.2 mph 17.3 mph N/A   Clear
11:34 PM 69.8 °F 59.0 °F 68% 30.03 in 10.0 mi South 10.4 mph 17.3 mph N/A   Clear
11:54 PM 69.8 °F 59.0 °F 68% 30.03 in 10.0 mi South 9.2 mph - N/A   Clear